Year,Month,Day,Hour,Minute,Value (Times are PST for temperature in C)
2010,10,01,00,00,15.60
2010,10,01,00,01,15.60
2010,10,01,00,02,15.60
2010,10,01,00,03,15.60
2010,10,01,00,04,15.60
2010,10,01,00,05,15.60
2010,10,01,00,06,15.60
2010,10,01,00,07,15.60
2010,10,01,00,08,15.60
2010,10,01,00,09,15.60
2010,10,01,00,10,15.60
2010,10,01,00,11,15.70
2010,10,01,00,12,15.70
2010,10,01,00,13,15.70
2010,10,01,00,14,15.70
2010,10,01,00,15,15.70
2010,10,01,00,16,15.70
2010,10,01,00,17,15.70
2010,10,01,00,18,15.70
2010,10,01,00,19,15.70
2010,10,01,00,20,15.70
2010,10,01,00,21,15.70
2010,10,01,00,22,15.70
2010,10,01,00,23,15.70
2010,10,01,00,24,15.70
2010,10,01,00,25,15.70
2010,10,01,00,26,15.70
2010,10,01,00,27,15.70
2010,10,01,00,28,15.70
2010,10,01,00,29,15.70
2010,10,01,00,30,15.60
2010,10,01,00,31,15.60
2010,10,01,00,32,15.60
2010,10,01,00,33,15.60
2010,10,01,00,34,15.60
2010,10,01,00,35,15.50
2010,10,01,00,36,15.50
2010,10,01,00,37,15.40
2010,10,01,00,38,15.40
2010,10,01,00,39,15.40
2010,10,01,00,40,15.40
2010,10,01,00,41,15.40
2010,10,01,00,42,15.40
2010,10,01,00,43,15.40
2010,10,01,00,44,15.40
2010,10,01,00,45,15.30
2010,10,01,00,46,15.30
2010,10,01,00,47,15.30
2010,10,01,00,48,15.30
2010,10,01,00,49,15.30
2010,10,01,00,50,15.20
2010,10,01,00,51,15.20
2010,10,01,00,52,15.20
2010,10,01,00,53,15.20
2010,10,01,00,54,15.10
2010,10,01,00,55,15.10
2010,10,01,00,56,15.10
2010,10,01,00,57,15.00
2010,10,01,00,58,15.00
2010,10,01,00,59,15.00
2010,10,01,01,00,15.00
2010,10,01,01,01,15.00
2010,10,01,01,02,15.00
2010,10,01,01,03,15.00
2010,10,01,01,04,15.00
2010,10,01,01,05,15.00
2010,10,01,01,06,15.00
2010,10,01,01,07,15.00
2010,10,01,01,08,15.00
2010,10,01,01,09,14.90
2010,10,01,01,10,14.90
2010,10,01,01,11,14.90
2010,10,01,01,12,14.90
2010,10,01,01,13,14.90
2010,10,01,01,14,14.90
2010,10,01,01,15,14.90
2010,10,01,01,16,14.90
2010,10,01,01,17,14.90
2010,10,01,01,18,14.80
2010,10,01,01,19,14.80
2010,10,01,01,20,14.80
2010,10,01,01,21,14.80
2010,10,01,01,22,14.80
2010,10,01,01,23,14.80
2010,10,01,01,24,14.80
2010,10,01,01,25,14.80
2010,10,01,01,26,14.80
2010,10,01,01,27,14.80
2010,10,01,01,28,14.80
2010,10,01,01,29,14.80
2010,10,01,01,30,14.90
2010,10,01,01,31,14.90
2010,10,01,01,32,14.90
2010,10,01,01,33,14.90
2010,10,01,01,34,14.90
2010,10,01,01,35,15.00
2010,10,01,01,36,15.00
2010,10,01,01,37,15.00
2010,10,01,01,38,15.00
2010,10,01,01,39,15.00
2010,10,01,01,40,15.00
2010,10,01,01,41,15.00
2010,10,01,01,42,15.00
2010,10,01,01,43,15.00
2010,10,01,01,44,15.00
2010,10,01,01,45,15.00
2010,10,01,01,46,15.00
2010,10,01,01,47,15.00
2010,10,01,01,48,15.00
2010,10,01,01,49,15.00
2010,10,01,01,50,15.00
2010,10,01,01,51,15.00
2010,10,01,01,52,15.00
2010,10,01,01,53,15.00
2010,10,01,01,54,15.00
2010,10,01,01,55,15.00
2010,10,01,01,56,15.00
2010,10,01,01,57,15.00
2010,10,01,01,58,15.00
2010,10,01,01,59,15.00
2010,10,01,02,00,15.00
2010,10,01,02,01,15.00
2010,10,01,02,02,15.00
2010,10,01,02,03,15.00
2010,10,01,02,04,15.00
2010,10,01,02,05,15.00
2010,10,01,02,06,15.00
2010,10,01,02,07,15.00
2010,10,01,02,08,15.00
2010,10,01,02,09,15.00
2010,10,01,02,10,15.00
2010,10,01,02,11,15.00
2010,10,01,02,12,15.00
2010,10,01,02,13,15.00
2010,10,01,02,14,15.00
2010,10,01,02,15,15.00
2010,10,01,02,16,15.00
2010,10,01,02,17,15.00
2010,10,01,02,18,15.00
2010,10,01,02,19,15.00
2010,10,01,02,20,15.00
2010,10,01,02,21,15.00
2010,10,01,02,22,15.00
2010,10,01,02,23,15.00
2010,10,01,02,24,15.00
2010,10,01,02,25,15.00
2010,10,01,02,26,15.00
2010,10,01,02,27,15.00
2010,10,01,02,28,15.00
2010,10,01,02,29,14.90
2010,10,01,02,30,14.90
2010,10,01,02,31,14.80
2010,10,01,02,32,14.80
2010,10,01,02,33,14.80
2010,10,01,02,34,14.80
2010,10,01,02,35,14.80
2010,10,01,02,36,14.80
2010,10,01,02,37,14.70
2010,10,01,02,38,14.70
2010,10,01,02,39,14.70
2010,10,01,02,40,14.70
2010,10,01,02,41,14.70
2010,10,01,02,42,14.70
2010,10,01,02,43,14.70
2010,10,01,02,44,14.70
2010,10,01,02,45,14.70
2010,10,01,02,46,14.70
2010,10,01,02,47,14.70
2010,10,01,02,48,14.70
2010,10,01,02,49,14.70
2010,10,01,02,50,14.70
2010,10,01,02,51,14.70
2010,10,01,02,52,14.70
2010,10,01,02,53,14.70
2010,10,01,02,54,14.70
2010,10,01,02,55,14.70
2010,10,01,02,56,14.80
2010,10,01,02,57,14.80
2010,10,01,02,58,14.80
2010,10,01,02,59,14.80
2010,10,01,03,00,14.70
2010,10,01,03,01,14.70
2010,10,01,03,02,14.70
2010,10,01,03,03,14.70
2010,10,01,03,04,14.70
2010,10,01,03,05,14.70
2010,10,01,03,06,14.70
2010,10,01,03,07,14.70
2010,10,01,03,08,14.70
2010,10,01,03,09,14.70
2010,10,01,03,10,14.60
2010,10,01,03,11,14.60
2010,10,01,03,12,14.60
2010,10,01,03,13,14.60
2010,10,01,03,14,14.70
2010,10,01,03,15,14.70
2010,10,01,03,16,14.70
2010,10,01,03,17,14.60
2010,10,01,03,18,14.60
2010,10,01,03,19,14.60
2010,10,01,03,20,14.60
2010,10,01,03,21,14.60
2010,10,01,03,22,14.60
2010,10,01,03,23,14.60
2010,10,01,03,24,14.60
2010,10,01,03,25,14.60
2010,10,01,03,26,14.60
2010,10,01,03,27,14.50
2010,10,01,03,28,14.50
2010,10,01,03,29,14.50
2010,10,01,03,30,14.40
2010,10,01,03,31,14.40
2010,10,01,03,32,14.40
2010,10,01,03,33,14.40
2010,10,01,03,34,14.50
2010,10,01,03,35,14.50
2010,10,01,03,36,14.50
2010,10,01,03,37,14.50
2010,10,01,03,38,14.50
2010,10,01,03,39,14.50
2010,10,01,03,40,14.50
2010,10,01,03,41,14.50
2010,10,01,03,42,14.50
2010,10,01,03,43,14.50
2010,10,01,03,44,14.50
2010,10,01,03,45,14.50
2010,10,01,03,46,14.50
2010,10,01,03,47,14.50
2010,10,01,03,48,14.40
2010,10,01,03,49,14.40
2010,10,01,03,50,14.30
2010,10,01,03,51,14.30
2010,10,01,03,52,14.30
2010,10,01,03,53,14.30
2010,10,01,03,54,14.30
2010,10,01,03,55,14.20
2010,10,01,03,56,14.20
2010,10,01,03,57,14.20
2010,10,01,03,58,14.20
2010,10,01,03,59,14.20
2010,10,01,04,00,14.20
2010,10,01,04,01,14.20
2010,10,01,04,02,14.20
2010,10,01,04,03,14.20
2010,10,01,04,04,14.20
2010,10,01,04,05,14.20
2010,10,01,04,06,14.20
2010,10,01,04,07,14.20
2010,10,01,04,08,14.10
2010,10,01,04,09,14.10
2010,10,01,04,10,14.10
2010,10,01,04,11,14.10
2010,10,01,04,12,14.10
2010,10,01,04,13,14.10
2010,10,01,04,14,14.10
2010,10,01,04,15,14.10
2010,10,01,04,16,14.10
2010,10,01,04,17,14.00
2010,10,01,04,18,14.00
2010,10,01,04,19,14.00
2010,10,01,04,20,13.90
2010,10,01,04,21,13.90
2010,10,01,04,22,13.90
2010,10,01,04,23,13.90
2010,10,01,04,24,13.90
2010,10,01,04,25,13.90
2010,10,01,04,26,13.90
2010,10,01,04,27,14.00
2010,10,01,04,28,13.90
2010,10,01,04,29,13.90
2010,10,01,04,30,13.90
2010,10,01,04,31,13.90
2010,10,01,04,32,13.90
2010,10,01,04,33,13.90
2010,10,01,04,34,13.90
2010,10,01,04,35,13.90
2010,10,01,04,36,13.90
2010,10,01,04,37,13.90
2010,10,01,04,38,13.90
2010,10,01,04,39,13.90
2010,10,01,04,40,13.90
2010,10,01,04,41,13.90
2010,10,01,04,42,13.90
2010,10,01,04,43,13.90
2010,10,01,04,44,13.90
2010,10,01,04,45,13.80
2010,10,01,04,46,13.80
2010,10,01,04,47,13.70
2010,10,01,04,48,13.70
2010,10,01,04,49,13.60
2010,10,01,04,50,13.50
2010,10,01,04,51,13.50
2010,10,01,04,52,13.40
2010,10,01,04,53,13.40
2010,10,01,04,54,13.40
2010,10,01,04,55,13.30
2010,10,01,04,56,13.30
2010,10,01,04,57,13.30
2010,10,01,04,58,13.30
2010,10,01,04,59,13.30
2010,10,01,05,00,13.20
2010,10,01,05,01,13.20
2010,10,01,05,02,13.20
2010,10,01,05,03,13.30
2010,10,01,05,04,13.30
2010,10,01,05,05,13.30
2010,10,01,05,06,13.30
2010,10,01,05,07,13.30
2010,10,01,05,08,13.30
2010,10,01,05,09,13.40
2010,10,01,05,10,13.40
2010,10,01,05,11,13.40
2010,10,01,05,12,13.40
2010,10,01,05,13,13.40
2010,10,01,05,14,13.50
2010,10,01,05,15,13.50
2010,10,01,05,16,13.50
2010,10,01,05,17,13.60
2010,10,01,05,18,13.60
2010,10,01,05,19,13.60
2010,10,01,05,20,13.60
2010,10,01,05,21,13.60
2010,10,01,05,22,13.70
2010,10,01,05,23,13.70
2010,10,01,05,24,13.70
2010,10,01,05,25,13.70
2010,10,01,05,26,13.70
2010,10,01,05,27,13.70
2010,10,01,05,28,13.70
2010,10,01,05,29,13.70
2010,10,01,05,30,13.80
2010,10,01,05,31,13.80
2010,10,01,05,32,13.80
2010,10,01,05,33,13.80
2010,10,01,05,34,13.80
2010,10,01,05,35,13.80
2010,10,01,05,36,13.80
2010,10,01,05,37,13.90
2010,10,01,05,38,13.90
2010,10,01,05,39,13.90
2010,10,01,05,40,13.90
2010,10,01,05,41,13.90
2010,10,01,05,42,13.90
2010,10,01,05,43,13.90
2010,10,01,05,44,13.90
2010,10,01,05,45,13.90
2010,10,01,05,46,13.90
2010,10,01,05,47,13.90
2010,10,01,05,48,13.90
2010,10,01,05,49,13.90
2010,10,01,05,50,13.90
2010,10,01,05,51,13.90
2010,10,01,05,52,13.90
2010,10,01,05,53,13.90
2010,10,01,05,54,13.90
2010,10,01,05,55,13.90
2010,10,01,05,56,13.90
2010,10,01,05,57,13.90
2010,10,01,05,58,13.90
2010,10,01,05,59,13.90
2010,10,01,06,00,13.90
2010,10,01,06,01,13.90
2010,10,01,06,02,13.90
2010,10,01,06,03,13.80
2010,10,01,06,04,13.80
2010,10,01,06,05,13.80
2010,10,01,06,06,13.80
2010,10,01,06,07,13.70
2010,10,01,06,08,13.70
2010,10,01,06,09,13.70
2010,10,01,06,10,13.70
2010,10,01,06,11,13.60
2010,10,01,06,12,13.60
2010,10,01,06,13,13.60
2010,10,01,06,14,13.60
2010,10,01,06,15,13.60
2010,10,01,06,16,13.60
2010,10,01,06,17,13.60
2010,10,01,06,18,13.60
2010,10,01,06,19,13.60
2010,10,01,06,20,13.60
2010,10,01,06,21,13.60
2010,10,01,06,22,13.60
2010,10,01,06,23,13.60
2010,10,01,06,24,13.60
2010,10,01,06,25,13.60
2010,10,01,06,26,13.60
2010,10,01,06,27,13.60
2010,10,01,06,28,13.60
2010,10,01,06,29,13.60
2010,10,01,06,30,13.60
2010,10,01,06,31,13.60
2010,10,01,06,32,13.60
2010,10,01,06,33,13.60
2010,10,01,06,34,13.60
2010,10,01,06,35,13.60
2010,10,01,06,36,13.60
2010,10,01,06,37,13.50
2010,10,01,06,38,13.50
2010,10,01,06,39,13.50
2010,10,01,06,40,13.50
2010,10,01,06,41,13.40
2010,10,01,06,42,13.40
2010,10,01,06,43,13.40
2010,10,01,06,44,13.40
2010,10,01,06,45,13.40
2010,10,01,06,46,13.40
2010,10,01,06,47,13.40
2010,10,01,06,48,13.40
2010,10,01,06,49,13.40
2010,10,01,06,50,13.40
2010,10,01,06,51,13.40
2010,10,01,06,52,13.40
2010,10,01,06,53,13.40
2010,10,01,06,54,13.40
2010,10,01,06,55,13.40
2010,10,01,06,56,13.40
2010,10,01,06,57,13.40
2010,10,01,06,58,13.40
2010,10,01,06,59,13.30
2010,10,01,07,00,13.30
2010,10,01,07,01,13.30
2010,10,01,07,02,13.30
2010,10,01,07,03,13.30
2010,10,01,07,04,13.30
2010,10,01,07,05,13.20
2010,10,01,07,06,13.20
2010,10,01,07,07,13.20
2010,10,01,07,08,13.20
2010,10,01,07,09,13.20
2010,10,01,07,10,13.20
2010,10,01,07,11,13.20
2010,10,01,07,12,13.20
2010,10,01,07,13,13.20
2010,10,01,07,14,13.30
2010,10,01,07,15,13.30
2010,10,01,07,16,13.30
2010,10,01,07,17,13.30
2010,10,01,07,18,13.30
2010,10,01,07,19,13.30
2010,10,01,07,20,13.30
2010,10,01,07,21,13.30
2010,10,01,07,22,13.30
2010,10,01,07,23,13.30
2010,10,01,07,24,13.30
2010,10,01,07,25,13.30
2010,10,01,07,26,13.30
2010,10,01,07,27,13.20
2010,10,01,07,28,13.20
2010,10,01,07,29,13.20
2010,10,01,07,30,13.20
2010,10,01,07,31,13.20
2010,10,01,07,32,13.20
2010,10,01,07,33,13.20
2010,10,01,07,34,13.20
2010,10,01,07,35,13.20
2010,10,01,07,36,13.20
2010,10,01,07,37,13.20
2010,10,01,07,38,13.30
2010,10,01,07,39,13.30
2010,10,01,07,40,13.30
2010,10,01,07,41,13.40
2010,10,01,07,42,13.40
2010,10,01,07,43,13.40
2010,10,01,07,44,13.40
2010,10,01,07,45,13.40
2010,10,01,07,46,13.40
2010,10,01,07,47,13.40
2010,10,01,07,48,13.40
2010,10,01,07,49,13.40
2010,10,01,07,50,13.50
2010,10,01,07,51,13.50
2010,10,01,07,52,13.50
2010,10,01,07,53,13.50
2010,10,01,07,54,13.60
2010,10,01,07,55,13.60
2010,10,01,07,56,13.60
2010,10,01,07,57,13.60
2010,10,01,07,58,13.60
2010,10,01,07,59,13.60
2010,10,01,08,00,13.60
2010,10,01,08,01,13.60
2010,10,01,08,02,13.70
2010,10,01,08,03,13.70
2010,10,01,08,04,13.70
2010,10,01,08,05,13.70
2010,10,01,08,06,13.70
2010,10,01,08,07,13.80
2010,10,01,08,08,13.80
2010,10,01,08,09,13.80
2010,10,01,08,10,13.80
2010,10,01,08,11,13.80
2010,10,01,08,12,13.90
2010,10,01,08,13,13.90
2010,10,01,08,14,13.90
2010,10,01,08,15,14.00
2010,10,01,08,16,14.00
2010,10,01,08,17,14.10
2010,10,01,08,18,14.10
2010,10,01,08,19,14.10
2010,10,01,08,20,14.20
2010,10,01,08,21,14.20
2010,10,01,08,22,14.30
2010,10,01,08,23,14.30
2010,10,01,08,24,14.30
2010,10,01,08,25,14.40
2010,10,01,08,26,14.40
2010,10,01,08,27,14.50
2010,10,01,08,28,14.60
2010,10,01,08,29,14.60
2010,10,01,08,30,14.70
2010,10,01,08,31,14.70
2010,10,01,08,32,14.70
2010,10,01,08,33,14.80
2010,10,01,08,34,14.80
2010,10,01,08,35,14.80
2010,10,01,08,36,14.90
2010,10,01,08,37,15.00
2010,10,01,08,38,15.00
2010,10,01,08,39,15.00
2010,10,01,08,40,15.00
2010,10,01,08,41,15.00
2010,10,01,08,42,15.00
2010,10,01,08,43,15.00
2010,10,01,08,44,15.00
2010,10,01,08,45,15.00
2010,10,01,08,46,15.00
2010,10,01,08,47,15.10
2010,10,01,08,48,15.20
2010,10,01,08,49,15.30
2010,10,01,08,50,15.50
2010,10,01,08,51,15.60
2010,10,01,08,52,15.70
2010,10,01,08,53,15.80
2010,10,01,08,54,15.90
2010,10,01,08,55,16.00
2010,10,01,08,56,16.10
2010,10,01,08,57,16.20
2010,10,01,08,58,16.30
2010,10,01,08,59,16.40
2010,10,01,09,00,16.40
2010,10,01,09,01,16.50
2010,10,01,09,02,16.60
2010,10,01,09,03,16.60
2010,10,01,09,04,16.60
2010,10,01,09,05,16.70
2010,10,01,09,06,16.70
2010,10,01,09,07,16.70
2010,10,01,09,08,16.70
2010,10,01,09,09,16.70
2010,10,01,09,10,16.70
2010,10,01,09,11,16.80
2010,10,01,09,12,16.80
2010,10,01,09,13,16.80
2010,10,01,09,14,16.80
2010,10,01,09,15,16.80
2010,10,01,09,16,16.80
2010,10,01,09,17,16.70
2010,10,01,09,18,16.70
2010,10,01,09,19,16.70
2010,10,01,09,20,16.60
2010,10,01,09,21,16.60
2010,10,01,09,22,16.50
2010,10,01,09,23,16.50
2010,10,01,09,24,16.50
2010,10,01,09,25,16.60
2010,10,01,09,26,16.60
2010,10,01,09,27,16.60
2010,10,01,09,28,16.60
2010,10,01,09,29,16.60
2010,10,01,09,30,16.60
2010,10,01,09,31,16.70
2010,10,01,09,32,16.70
2010,10,01,09,33,16.80
2010,10,01,09,34,16.90
2010,10,01,09,35,17.00
2010,10,01,09,36,17.10
2010,10,01,09,37,17.20
2010,10,01,09,38,17.40
2010,10,01,09,39,17.50
2010,10,01,09,40,17.50
2010,10,01,09,41,17.60
2010,10,01,09,42,17.60
2010,10,01,09,43,17.50
2010,10,01,09,44,17.50
2010,10,01,09,45,17.40
2010,10,01,09,46,17.40
2010,10,01,09,47,17.40
2010,10,01,09,48,17.40
2010,10,01,09,49,17.40
2010,10,01,09,50,17.40
2010,10,01,09,51,17.30
2010,10,01,09,52,17.30
2010,10,01,09,53,17.30
2010,10,01,09,54,17.40
2010,10,01,09,55,17.40
2010,10,01,09,56,17.50
2010,10,01,09,57,17.50
2010,10,01,09,58,17.60
2010,10,01,09,59,17.70
2010,10,01,10,00,17.70
2010,10,01,10,01,17.70
2010,10,01,10,02,17.80
2010,10,01,10,03,17.80
2010,10,01,10,04,17.80
2010,10,01,10,05,17.80
2010,10,01,10,06,17.80
2010,10,01,10,07,17.80
2010,10,01,10,08,17.70
2010,10,01,10,09,17.80
2010,10,01,10,10,17.80
2010,10,01,10,11,17.80
2010,10,01,10,12,17.80
2010,10,01,10,13,17.70
2010,10,01,10,14,17.70
2010,10,01,10,15,17.70
2010,10,01,10,16,17.80
2010,10,01,10,17,17.80
2010,10,01,10,18,17.80
2010,10,01,10,19,17.90
2010,10,01,10,20,17.90
2010,10,01,10,21,17.90
2010,10,01,10,22,18.00
2010,10,01,10,23,18.10
2010,10,01,10,24,18.20
2010,10,01,10,25,18.20
2010,10,01,10,26,18.30
2010,10,01,10,27,18.40
2010,10,01,10,28,18.50
2010,10,01,10,29,18.60
2010,10,01,10,30,18.70
2010,10,01,10,31,18.80
2010,10,01,10,32,18.80
2010,10,01,10,33,18.80
2010,10,01,10,34,18.80
2010,10,01,10,35,18.70
2010,10,01,10,36,18.60
2010,10,01,10,37,18.50
2010,10,01,10,38,18.40
2010,10,01,10,39,18.30
2010,10,01,10,40,18.20
2010,10,01,10,41,18.20
2010,10,01,10,42,18.20
2010,10,01,10,43,18.20
2010,10,01,10,44,18.20
2010,10,01,10,45,18.20
2010,10,01,10,46,18.10
2010,10,01,10,47,18.00
2010,10,01,10,48,18.00
2010,10,01,10,49,18.00
2010,10,01,10,50,18.00
2010,10,01,10,51,18.10
2010,10,01,10,52,18.10
2010,10,01,10,53,18.10
2010,10,01,10,54,18.10
2010,10,01,10,55,18.10
2010,10,01,10,56,18.10
2010,10,01,10,57,18.10
2010,10,01,10,58,18.20
2010,10,01,10,59,18.20
2010,10,01,11,00,18.30
2010,10,01,11,01,18.30
2010,10,01,11,02,18.30
2010,10,01,11,03,18.40
2010,10,01,11,04,18.40
2010,10,01,11,05,18.50
2010,10,01,11,06,18.60
2010,10,01,11,07,18.60
2010,10,01,11,08,18.70
2010,10,01,11,09,18.80
2010,10,01,11,10,18.90
2010,10,01,11,11,18.90
2010,10,01,11,12,19.00
2010,10,01,11,13,19.00
2010,10,01,11,14,19.00
2010,10,01,11,15,19.00
2010,10,01,11,16,19.00
2010,10,01,11,17,19.00
2010,10,01,11,18,19.10
2010,10,01,11,19,19.10
2010,10,01,11,20,19.10
2010,10,01,11,21,19.20
2010,10,01,11,22,19.20
2010,10,01,11,23,19.10
2010,10,01,11,24,19.10
2010,10,01,11,25,19.10
2010,10,01,11,26,19.10
2010,10,01,11,27,19.00
2010,10,01,11,28,19.00
2010,10,01,11,29,19.00
2010,10,01,11,30,19.00
2010,10,01,11,31,19.10
2010,10,01,11,32,19.10
2010,10,01,11,33,19.10
2010,10,01,11,34,19.10
2010,10,01,11,35,19.10
2010,10,01,11,36,19.10
2010,10,01,11,37,19.10
2010,10,01,11,38,19.10
2010,10,01,11,39,19.20
2010,10,01,11,40,19.20
2010,10,01,11,41,19.20
2010,10,01,11,42,19.20
2010,10,01,11,43,19.20
2010,10,01,11,44,19.20
2010,10,01,11,45,19.30
2010,10,01,11,46,19.20
2010,10,01,11,47,19.20
2010,10,01,11,48,19.20
2010,10,01,11,49,19.20
2010,10,01,11,50,19.10
2010,10,01,11,51,19.00
2010,10,01,11,52,18.90
2010,10,01,11,53,18.80
2010,10,01,11,54,18.80
2010,10,01,11,55,18.80
2010,10,01,11,56,18.70
2010,10,01,11,57,18.70
2010,10,01,11,58,18.70
2010,10,01,11,59,18.70
2010,10,01,12,00,18.70
2010,10,01,12,01,18.70
2010,10,01,12,02,18.70
2010,10,01,12,03,18.80
2010,10,01,12,04,18.80
2010,10,01,12,05,18.90
2010,10,01,12,06,18.90
2010,10,01,12,07,18.90
2010,10,01,12,08,18.90
2010,10,01,12,09,19.00
2010,10,01,12,10,19.00
2010,10,01,12,11,19.00
2010,10,01,12,12,19.00
2010,10,01,12,13,19.00
2010,10,01,12,14,18.90
2010,10,01,12,15,18.90
2010,10,01,12,16,18.90
2010,10,01,12,17,18.80
2010,10,01,12,18,18.80
2010,10,01,12,19,18.80
2010,10,01,12,20,18.80
2010,10,01,12,21,18.80
2010,10,01,12,22,18.90
2010,10,01,12,23,18.90
2010,10,01,12,24,18.90
2010,10,01,12,25,18.90
2010,10,01,12,26,18.90
2010,10,01,12,27,18.90
2010,10,01,12,28,18.90
2010,10,01,12,29,18.90
2010,10,01,12,30,19.00
2010,10,01,12,31,19.00
2010,10,01,12,32,18.90
2010,10,01,12,33,18.90
2010,10,01,12,34,18.90
2010,10,01,12,35,18.90
2010,10,01,12,36,18.80
2010,10,01,12,37,18.70
2010,10,01,12,38,18.60
2010,10,01,12,39,18.60
2010,10,01,12,40,18.50
2010,10,01,12,41,18.50
2010,10,01,12,42,18.50
2010,10,01,12,43,18.40
2010,10,01,12,44,18.40
2010,10,01,12,45,18.50
2010,10,01,12,46,18.60
2010,10,01,12,47,18.70
2010,10,01,12,48,18.80
2010,10,01,12,49,18.80
2010,10,01,12,50,18.90
2010,10,01,12,51,18.90
2010,10,01,12,52,18.90
2010,10,01,12,53,18.90
2010,10,01,12,54,19.00
2010,10,01,12,55,19.00
2010,10,01,12,56,19.10
2010,10,01,12,57,19.10
2010,10,01,12,58,19.20
2010,10,01,12,59,19.20
2010,10,01,13,00,19.10
2010,10,01,13,01,19.10
2010,10,01,13,02,19.00
2010,10,01,13,03,19.00
2010,10,01,13,04,19.00
2010,10,01,13,05,18.90
2010,10,01,13,06,18.90
2010,10,01,13,07,18.80
2010,10,01,13,08,18.80
2010,10,01,13,09,18.80
2010,10,01,13,10,18.80
2010,10,01,13,11,18.80
2010,10,01,13,12,18.70
2010,10,01,13,13,18.70
2010,10,01,13,14,18.70
2010,10,01,13,15,18.60
2010,10,01,13,16,18.60
2010,10,01,13,17,18.60
2010,10,01,13,18,18.60
2010,10,01,13,19,18.60
2010,10,01,13,20,18.60
2010,10,01,13,21,18.60
2010,10,01,13,22,18.60
2010,10,01,13,23,18.70
2010,10,01,13,24,18.70
2010,10,01,13,25,18.70
2010,10,01,13,26,18.80
2010,10,01,13,27,18.90
2010,10,01,13,28,19.00
2010,10,01,13,29,19.10
2010,10,01,13,30,19.20
2010,10,01,13,31,19.40
2010,10,01,13,32,19.60
2010,10,01,13,33,19.80
2010,10,01,13,34,20.00
2010,10,01,13,35,20.20
2010,10,01,13,36,20.30
2010,10,01,13,37,20.40
2010,10,01,13,38,20.40
2010,10,01,13,39,20.30
2010,10,01,13,40,20.20
2010,10,01,13,41,20.10
2010,10,01,13,42,19.90
2010,10,01,13,43,19.80
2010,10,01,13,44,19.70
2010,10,01,13,45,19.60
2010,10,01,13,46,19.50
2010,10,01,13,47,19.40
2010,10,01,13,48,19.30
2010,10,01,13,49,19.30
2010,10,01,13,50,19.30
2010,10,01,13,51,19.30
2010,10,01,13,52,19.40
2010,10,01,13,53,19.30
2010,10,01,13,54,19.30
2010,10,01,13,55,19.30
2010,10,01,13,56,19.30
2010,10,01,13,57,19.30
2010,10,01,13,58,19.30
2010,10,01,13,59,19.20
2010,10,01,14,00,19.00
2010,10,01,14,01,19.00
2010,10,01,14,02,18.90
2010,10,01,14,03,18.90
2010,10,01,14,04,18.80
2010,10,01,14,05,18.80
2010,10,01,14,06,18.80
2010,10,01,14,07,18.80
2010,10,01,14,08,18.80
2010,10,01,14,09,18.80
2010,10,01,14,10,18.80
2010,10,01,14,11,18.80
2010,10,01,14,12,18.80
2010,10,01,14,13,18.90
2010,10,01,14,14,19.00
2010,10,01,14,15,19.10
2010,10,01,14,16,19.10
2010,10,01,14,17,19.10
2010,10,01,14,18,19.10
2010,10,01,14,19,19.20
2010,10,01,14,20,19.30
2010,10,01,14,21,19.40
2010,10,01,14,22,19.50
2010,10,01,14,23,19.60
2010,10,01,14,24,19.60
2010,10,01,14,25,19.60
2010,10,01,14,26,19.70
2010,10,01,14,27,19.70
2010,10,01,14,28,19.70
2010,10,01,14,29,19.90
2010,10,01,14,30,19.90
2010,10,01,14,31,19.90
2010,10,01,14,32,19.90
2010,10,01,14,33,19.90
2010,10,01,14,34,19.80
2010,10,01,14,35,19.80
2010,10,01,14,36,19.80
2010,10,01,14,37,19.80
2010,10,01,14,38,19.80
2010,10,01,14,39,19.90
2010,10,01,14,40,19.90
2010,10,01,14,41,19.80
2010,10,01,14,42,19.80
2010,10,01,14,43,19.80
2010,10,01,14,44,19.70
2010,10,01,14,45,19.50
2010,10,01,14,46,19.40
2010,10,01,14,47,19.30
2010,10,01,14,48,19.20
2010,10,01,14,49,19.20
2010,10,01,14,50,19.30
2010,10,01,14,51,19.30
2010,10,01,14,52,19.40
2010,10,01,14,53,19.50
2010,10,01,14,54,19.50
2010,10,01,14,55,19.60
2010,10,01,14,56,19.70
2010,10,01,14,57,19.70
2010,10,01,14,58,19.80
2010,10,01,14,59,19.90
2010,10,01,15,00,19.90
2010,10,01,15,01,19.80
2010,10,01,15,02,19.70
2010,10,01,15,03,19.70
2010,10,01,15,04,19.60
2010,10,01,15,05,19.50
2010,10,01,15,06,19.40
2010,10,01,15,07,19.40
2010,10,01,15,08,19.40
2010,10,01,15,09,19.40
2010,10,01,15,10,19.40
2010,10,01,15,11,19.40
2010,10,01,15,12,19.40
2010,10,01,15,13,19.30
2010,10,01,15,14,19.30
2010,10,01,15,15,19.30
2010,10,01,15,16,19.30
2010,10,01,15,17,19.30
2010,10,01,15,18,19.30
2010,10,01,15,19,19.40
2010,10,01,15,20,19.40
2010,10,01,15,21,19.50
2010,10,01,15,22,19.60
2010,10,01,15,23,19.60
2010,10,01,15,24,19.60
2010,10,01,15,25,19.60
2010,10,01,15,26,19.60
2010,10,01,15,27,19.60
2010,10,01,15,28,19.70
2010,10,01,15,29,19.70
2010,10,01,15,30,19.80
2010,10,01,15,31,19.90
2010,10,01,15,32,19.90
2010,10,01,15,33,19.90
2010,10,01,15,34,20.00
2010,10,01,15,35,20.00
2010,10,01,15,36,20.00
2010,10,01,15,37,20.10
2010,10,01,15,38,20.10
2010,10,01,15,39,20.20
2010,10,01,15,40,20.20
2010,10,01,15,41,20.40
2010,10,01,15,42,20.40
2010,10,01,15,43,20.40
2010,10,01,15,44,20.30
2010,10,01,15,45,20.30
2010,10,01,15,46,20.20
2010,10,01,15,47,20.20
2010,10,01,15,48,20.20
2010,10,01,15,49,20.10
2010,10,01,15,50,20.00
2010,10,01,15,51,19.90
2010,10,01,15,52,19.80
2010,10,01,15,53,19.80
2010,10,01,15,54,19.70
2010,10,01,15,55,19.70
2010,10,01,15,56,19.70
2010,10,01,15,57,19.80
2010,10,01,15,58,19.80
2010,10,01,15,59,19.80
2010,10,01,16,00,19.90
2010,10,01,16,01,19.90
2010,10,01,16,02,19.80
2010,10,01,16,03,19.80
2010,10,01,16,04,19.80
2010,10,01,16,05,19.80
2010,10,01,16,06,19.90
2010,10,01,16,07,19.90
2010,10,01,16,08,19.90
2010,10,01,16,09,20.00
2010,10,01,16,10,20.00
2010,10,01,16,11,20.10
2010,10,01,16,12,20.10
2010,10,01,16,13,20.10
2010,10,01,16,14,20.00
2010,10,01,16,15,20.00
2010,10,01,16,16,20.00
2010,10,01,16,17,20.00
2010,10,01,16,18,20.10
2010,10,01,16,19,20.00
2010,10,01,16,20,20.00
2010,10,01,16,21,19.90
2010,10,01,16,22,19.90
2010,10,01,16,23,19.90
2010,10,01,16,24,19.80
2010,10,01,16,25,19.60
2010,10,01,16,26,19.60
2010,10,01,16,27,19.60
2010,10,01,16,28,19.60
2010,10,01,16,29,19.60
2010,10,01,16,30,19.60
2010,10,01,16,31,19.60
2010,10,01,16,32,19.60
2010,10,01,16,33,19.60
2010,10,01,16,34,19.70
2010,10,01,16,35,19.80
2010,10,01,16,36,19.80
2010,10,01,16,37,19.90
2010,10,01,16,38,19.90
2010,10,01,16,39,19.80
2010,10,01,16,40,19.80
2010,10,01,16,41,19.80
2010,10,01,16,42,19.70
2010,10,01,16,43,19.70
2010,10,01,16,44,19.60
2010,10,01,16,45,19.50
2010,10,01,16,46,19.40
2010,10,01,16,47,19.30
2010,10,01,16,48,19.20
2010,10,01,16,49,19.10
2010,10,01,16,50,19.00
2010,10,01,16,51,19.00
2010,10,01,16,52,19.00
2010,10,01,16,53,19.00
2010,10,01,16,54,18.90
2010,10,01,16,55,18.90
2010,10,01,16,56,19.00
2010,10,01,16,57,19.00
2010,10,01,16,58,18.90
2010,10,01,16,59,18.80
2010,10,01,17,00,18.80
2010,10,01,17,01,18.80
2010,10,01,17,02,18.80
2010,10,01,17,03,18.80
2010,10,01,17,04,18.70
2010,10,01,17,05,18.70
2010,10,01,17,06,18.60
2010,10,01,17,07,18.60
2010,10,01,17,08,18.60
2010,10,01,17,09,18.60
2010,10,01,17,10,18.60
2010,10,01,17,11,18.50
2010,10,01,17,12,18.50
2010,10,01,17,13,18.50
2010,10,01,17,14,18.50
2010,10,01,17,15,18.50
2010,10,01,17,16,18.60
2010,10,01,17,17,18.50
2010,10,01,17,18,18.50
2010,10,01,17,19,18.50